Flag for U.S.A. Weather past 2 weeks in Sidney, Montana, U.S.A.

Now
55 °F

Sunny.


Feels Like: 51 °F
Forecast: 33 / 60 °F
Wind: 16 mph from Southeast

Location: Sidney-Richland


UV Index: 0 (Low)

Visibility: 10 mi


Pressure: 29.71 "Hg

Humidity: 44%

Dew point: 34 °F

Location of SidneyLocation

Historic Weather in Sidney

°F

Sidney temperature yesterday

Maximum temperature yesterday: 48 °F (at 2:15 PM)
Minimum temperature yesterday: 28 °F (at 12:15 AM)
Average temperature yesterday: 39 °F

Past Weeks' High & Low Weather Summary

 TemperatureHumidityPressure
High70 °F (Apr 8, 2:15 PM)100% (Apr 4, 4:15 AM)30.33 "Hg (Apr 4, 4:15 AM)
Low18 °F (Apr 4, 5:35 AM)21% (Apr 10, 5:55 PM)29.55 "Hg (Apr 15, 3:55 PM)
Average40 °F59%29.94 "Hg
* Reported Apr 3 11:15 AM — Apr 18 11:35 AM, Sidney, Weather by CustomWeather, © 2014

Note: Actual official high and low records may vary slightly from our data, if they occured in-between our weather recording intervals... More about our weather records

Advertising

Historic Weather Conditions — Data for Previous 24 hours

 ConditionsComfort  
Time TempWeatherWind HumidityBarometerVisibility
11:35 AM
Apr 18
50 °FPassing clouds.16 mph50%29.75 "Hg10 mi
11:15 AM48 °FScattered clouds.16 mph50%29.76 "Hg10 mi
10:55 AM46 °FPartly sunny.12 mph53%29.77 "Hg10 mi
10:35 AM46 °FScattered clouds.13 mph53%29.79 "Hg10 mi
10:15 AM45 °FPassing clouds.13 mph53%29.80 "Hg10 mi
9:55 AM45 °FPassing clouds.14 mph53%29.81 "Hg10 mi
9:35 AM45 °FPassing clouds.16 mph53%29.81 "Hg10 mi
9:15 AM43 °FPassing clouds.17 mph57%29.82 "Hg10 mi
8:55 AM43 °FSunny.16 mph57%29.82 "Hg10 mi
8:35 AM41 °FSunny.16 mph57%29.84 "Hg10 mi
8:15 AM39 °FSunny.15 mph61%29.84 "Hg10 mi
7:55 AM37 °FSunny.10 mph65%29.84 "Hg10 mi
7:35 AM37 °FSunny.9 mph65%29.85 "Hg10 mi
6:55 AM36 °FPassing clouds.10 mph65%29.86 "Hg10 mi
6:35 AM36 °FPassing clouds.10 mph65%29.86 "Hg10 mi
6:15 AM36 °FPassing clouds.7 mph65%29.87 "Hg10 mi
5:55 AM36 °FPassing clouds.12 mph65%29.87 "Hg10 mi
5:35 AM37 °FPassing clouds.10 mph60%29.88 "Hg10 mi
5:15 AM37 °FPassing clouds.10 mph60%29.88 "Hg10 mi
4:55 AM37 °FOvercast.8 mph60%29.89 "Hg10 mi
4:35 AM37 °FMostly cloudy.8 mph60%29.88 "Hg10 mi
4:15 AM39 °FOvercast.12 mph61%29.88 "Hg10 mi
3:55 AM39 °FOvercast.13 mph61%29.88 "Hg10 mi
3:35 AM39 °FMostly cloudy.12 mph61%29.89 "Hg10 mi
3:15 AM39 °FOvercast.10 mph61%29.89 "Hg10 mi
2:55 AM39 °FOvercast.13 mph65%29.90 "Hg10 mi
2:35 AM41 °FOvercast.12 mph61%29.92 "Hg10 mi
2:15 AM41 °FOvercast.12 mph61%29.93 "Hg10 mi
1:55 AM41 °FOvercast.7 mph61%29.93 "Hg10 mi
1:35 AM41 °FMostly cloudy.10 mph61%29.94 "Hg10 mi
1:15 AM43 °FMostly cloudy.9 mph57%29.94 "Hg10 mi
12:55 AM43 °FOvercast.6 mph61%29.95 "Hg10 mi
12:35 AM43 °FMostly cloudy.7 mph61%29.96 "Hg10 mi
12:15 AM43 °FMostly cloudy.8 mph61%29.95 "Hg10 mi
11:55 PM
Apr 17
43 °FMostly cloudy.6 mph61%29.96 "Hg10 mi
11:35 PM43 °FOvercast.6 mph61%29.97 "Hg10 mi
11:15 PM43 °FOvercast.8 mph61%29.97 "Hg10 mi
10:55 PM43 °FOvercast.9 mph57%29.97 "Hg10 mi
10:35 PM43 °FOvercast.13 mph57%29.97 "Hg10 mi
10:15 PM43 °FOvercast.12 mph57%29.98 "Hg10 mi
9:55 PM43 °FOvercast.9 mph57%29.98 "Hg10 mi
9:35 PM45 °FOvercast.8 mph53%29.98 "Hg10 mi
9:15 PM45 °FOvercast.13 mph53%29.98 "Hg10 mi
8:55 PM45 °FOvercast.10 mph53%29.98 "Hg10 mi
8:35 PM45 °FBroken clouds.13 mph53%29.98 "Hg10 mi
8:15 PM45 °FPartly sunny.9 mph53%29.99 "Hg10 mi
7:55 PM45 °FScattered clouds.8 mph53%29.98 "Hg10 mi
7:35 PM45 °FPartly sunny.12 mph53%29.98 "Hg10 mi
7:15 PM45 °FMostly cloudy.12 mph57%29.99 "Hg10 mi
6:55 PM46 °FPartly sunny.10 mph53%29.99 "Hg10 mi
6:35 PM46 °FScattered clouds.9 mph53%30.00 "Hg10 mi
6:15 PM46 °FSunny.15 mph53%30.00 "Hg10 mi
5:55 PM46 °FSunny.15 mph53%30.01 "Hg10 mi
5:35 PM46 °FSunny.14 mph50%30.01 "Hg10 mi
4:55 PM46 °FSunny.15 mph50%30.02 "Hg10 mi
4:35 PM48 °FSunny.17 mph50%30.02 "Hg10 mi
4:15 PM48 °FSunny.17 mph50%30.02 "Hg10 mi
3:55 PM48 °FScattered clouds.18 mph46%30.03 "Hg10 mi
3:35 PM48 °FPartly sunny.18 mph50%30.04 "Hg10 mi
3:15 PM48 °FPartly sunny.21 mph50%30.04 "Hg10 mi
2:55 PM46 °FPartly sunny.16 mph53%30.05 "Hg10 mi
2:35 PM48 °FPartly sunny.17 mph46%30.05 "Hg10 mi
2:15 PM48 °FMostly cloudy.22 mph50%30.06 "Hg10 mi
1:55 PM46 °FMostly cloudy.16 mph50%30.07 "Hg10 mi
1:35 PM46 °FPartly sunny.17 mph50%30.07 "Hg10 mi
1:15 PM46 °FPartly sunny.16 mph50%30.08 "Hg10 mi
12:55 PM46 °FPartly sunny.20 mph50%30.08 "Hg10 mi
12:35 PM45 °FOvercast.15 mph53%30.09 "Hg10 mi
12:15 PM46 °FPartly sunny.17 mph46%30.10 "Hg10 mi
Weather by CustomWeather, © 2014

See weather overview